User: anonymous   Login
Location: Stara Lesna
(49.1528°N, 20.2911°E)
Time: 02:28:30
(UTC+02:00)
Language:

MSX - Orbit

View from above orbital plane
View from above orbital plane
View from above satellite
View from above satellite

Ground track
Ground track

The orbit data is extracted from the following two-line orbital elements,

1 23851U 96024A   20272.49375932 -.00000209 +00000-0 -11718-3 0  9999
2 23851 098.7916 233.5301 0006785 238.1755 121.8749 13.98091940246609
Epoch (UTC): 28 September 2020 11:51:00
Eccentricity: 0.0006785
inclination: 98.7916°
perigee height: 895 km
apogee height: 905 km
right ascension of ascending node: 233.5301°
argument of perigee: 238.1755°
revolutions per day: 13.98091940
mean anomaly at epoch: 121.8749°
orbit number at epoch: 24660

The dashed part of the orbit path shows where the satellite is in the earth's shadow,  

DLR